Regional Weather Roundup
Issued by NWS

Home | Current Version | Previous Version | Text Only | Print | Product List | Glossary Off
Versions: 1 2 3 4 5 6 7 8 9 10 11 12 13 14 15 16 17 18 19 20 21 22 23 24 25 26 27 28 29 30 31 32 33 34 35 36 37 38 39 40 41 42 43 44 45 46 47 48 49 50

000
ASUS43 KDTX 260401
RWRMI
MICHIGAN HOURLY REGIONAL WEATHER ROUNDUP
NATIONAL WEATHER SERVICE DETROIT/PONTIAC MI
1100 PM EST SUN JAN 25 2015

NOTE: "FAIR" INDICATES FEW OR NO CLOUDS BELOW 12,000 FEET WITH NO
SIGNIFICANT WEATHER AND/OR OBSTRUCTION TO VISIBILITY.

MIZ047>049-052>055-059>063-066>070-074>076-081>083-260500-
SOUTHEAST LOWER MICHIGAN

CITY           SKY/WX    TMP DP  RH WIND       PRES   REMARKS
ADRIAN         CLOUDY    19   9  65 NE14      29.95S WCI   6
ALMA           FLURRIES  16  11  78 NE9       30.04R WCI   5
ANN ARBOR      CLOUDY    19   9  65 NE12      29.96S WCI   7
BAD AXE        FLURRIES  18  13  80 NE9       30.04R WCI   7
CARO           MOCLDY    16  12  83 N5        30.02S WCI   9
DETROIT CITY   CLOUDY    18   4  54 NE12      29.99S WCI   5
DETROIT        CLOUDY    19   8  62 NE12      29.98S WCI   7
FLINT          MOCLDY    17   9  70 NE10      30.00S WCI   5
GROSSE ILE     CLOUDY    18   7  62 NE14      29.97R WCI   4
HILLSDALE      CLOUDY    18   7  62 NE7       29.91R WCI   9
HOWELL         MOCLDY    15  10  82 N7        29.97S WCI   5

CITY           SKY/WX    TMP DP  RH WIND       PRES   REMARKS
JACKSON        MOCLDY    17   8  67 NE10G18   29.96R WCI   5
LAMBERTVILLE   CLOUDY    21   9  58 NE7       29.95S WCI  13
LANSING        MOCLDY    16   8  71 NE9       30.00S WCI   4
LAPEER         FAIR      13  10  89 NE3       30.00S
MASON          MOCLDY    16  10  77 NE13      29.98S WCI   2
MONROE         CLOUDY    19   9  63 NE13G18   29.95R WCI   7
PONTIAC        MOCLDY    15   8  73 NE9       29.96S WCI   3
PORT HOPE        N/A     20  11  68 NE15      30.03S WCI   6
PORT HURON     MOCLDY    14   9  79 NE10      30.01S WCI   1
TRI CITIES     FLURRIES  16  10  77 NE12      30.04S WCI   3
TROY           MOCLDY    20   9  62 NE9       30.00S WCI   9
SAGINAW HB     MOCLDY    18  12  79 NE8       30.04S WCI   7
$$
MIZ043>046-050>051-056>058-064>065-071>073-077>080-260500-
SOUTHWEST LOWER MICHIGAN

CITY           SKY/WX    TMP DP  RH WIND       PRES   REMARKS
BATTLE CREEK   PTCLDY    19   7  59 NE14G24   29.96S WCI   6
BENTON HARBOR  PTCLDY    18  11  74 NE7       29.98S WCI   9
BIG RAPIDS     CLEAR     12   4  73 CALM      30.02S
COLDWATER      CLOUDY    19   7  59 NE14G20   29.94R WCI   6
FREMONT        FAIR      13   1  59 N3        30.03S
HOLLAND        PTCLDY    19  10  68 NE8       30.01S WCI   9
GRAND RAPIDS   CLOUDY    17  11  77 E7        30.01R WCI   8
IONIA          MOCLDY    17  11  78 NE6       30.00R WCI   9
KALAMAZOO      PTCLDY    18  10  71 NE10      29.98R WCI   6
LUDINGTON      CLEAR     12   5  73 NE5       30.07S WCI   4
MARSHALL       MOCLDY    16   8  71 NE5       29.96R WCI   8
MOUNT PLEASANT PTCLDY    12   5  74 N6        30.04R WCI   3
MUSKEGON       PTCLDY    17   7  64 NE7       30.04S WCI   8
SOUTH HAVEN    CLOUDY    20  11  70 NE7       29.99S WCI  11
$$
MIZ016>042-260500-
NORTHERN LOWER MICHIGAN

CITY           SKY/WX    TMP DP  RH WIND       PRES   REMARKS
ALPENA         PTCLDY     0  -5  79 CALM      30.09F
BEAVER ISLAND  PTCLDY    -3  -6  87 CALM      30.09F
BELLAIRE       CLEAR      0  -4  85 CALM      30.11F
CADILLAC       PTCLDY     0  -6  75 CALM      30.01S
CHARLEVOIX     CLEAR      5   1  85 SE5       30.12F WCI  -4
FRANKFORT      PTCLDY     8   5  89 CALM      30.08S
GAYLORD        PTCLDY     0  -3  87 CALM      30.03F
GRAYLING       PTCLDY    -7 -11  81 CALM      30.06S
HARBOR SPRINGS PTCLDY     0  -4  82 NE3       30.09F
HOUGHTON LAKE  PTCLDY     5   0  79 NE6       30.04S WCI  -6
MANISTEE       CLEAR      7   1  78 E6        30.06F WCI  -3
OSCODA         MOCLDY    13   9  81 N6        30.06S WCI   4
PELLSTON       PTCLDY    -8 -13  78 CALM      30.10F
ROGERS CITY    PTCLDY     0  -3  90 S3        30.10F
TRAVERSE CITY  PTCLDY     3  -1  83 CALM      30.08F
$$
MIZ007>008-015-260500-
EASTERN UPPER MICHIGAN

CITY           SKY/WX    TMP DP  RH WIND       PRES   REMARKS
KINROSS        MOCLDY    -2  -6  84 CALM      30.08F
MACKINAC ISLAN MOCLDY     6   1  80 NE3       30.09F
NEWBERRY       MOCLDY    -6  -8  92 SE3       30.06F
S. S. MARIE    MOCLDY    -5 -10  79 CALM      30.09F
MUNISING         N/A      6   1  80 SW7       30.06F WCI  -6
$$
MIZ004>006-011>014-085-260500-
CENTRAL UPPER MICHIGAN

CITY           SKY/WX    TMP DP  RH WIND       PRES   REMARKS
MANISTIQUE     MOCLDY     1  -5  76 CALM      30.07F
ESCANABA       PTCLDY     1   0  92 CALM      30.05F
MENOMINEE      PTCLDY     7   3  85 CALM      30.05F
SAWYER-GWINN   SNOW       1  -3  83 CALM      29.99F VSB 1/4
$$
MIZ001>003-009>011-084-260500-
WESTERN UPPER MICHIGAN

CITY           SKY/WX    TMP DP  RH WIND       PRES   REMARKS
IRON MOUNTAIN  CLEAR      0  -3  87 CALM      30.00F
HOUGHTON       PTCLDY     5  -1  76 S3        29.98S
COPPER HARBOR    N/A      8   3  80 CALM      30.02F
IRONWOOD       MOCLDY     7   1  78 CALM      29.94F
$$

ABBREVIATIONS USED IN REMARKS
   TC - TEMPERATURE IN CELSIUS
  WCI - WIND CHILL INDEX
   HX - HEAT INDEX
  VSB - VISIBILITY




USA.gov is the U.S. government's official web portal to all federal, state and local government web resources and services.